Вернуться в каталог

STARLINK-36847

АктивенСвязьVLEO
NORAD 67910·PAYLOAD·🇺🇸 United States

Запущен Feb 22, 2026 с Vandenberg Space Force Base

Loading…

Ближайшие Пролёты (ближайшие 24 часа)

TLE

СвежийSource: CelesTrak SupGP

Эпоха: Sep 15, 2026, 04:25 UTC

1 67910C 26036G   26258.18451389 -.00044111  00000+0 -15973-2 0  2589
2 67910  43.0012 255.2247 0001371 268.9678  14.4010 15.27608788    13

Отслеживайте STARLINK-36847 в реальном времени с AllMySat

Download on the App Store